Location: Kuppenheim
(48.8299°N, 8.2568°E)
Time: 06:14:06
(UTC+00:00)

Lacrosse 4 Rocket - Visible Passes

Search period start: 26 October 2021 00:00
Search period end: 05 November 2021 00:00
Orbit: 540 x 617 km, 68.0° (Epoch: 25 October)

Date Brightness Start Highest point End Pass type
(mag) Time Alt. Az. Time Alt. Az. Time Alt. Az.
26 Oct 2.4 17:37:31 10° NW 17:41:43 51° WSW 17:45:59 10° SSE visible
27 Oct 3.2 17:42:03 10° NW 17:45:59 34° WSW 17:49:58 10° S visible
28 Oct 4.0 17:46:43 10° WNW 17:50:11 24° WSW 17:53:42 10° SSW visible
29 Oct 4.6 17:51:40 10° WNW 17:54:21 16° WSW 17:57:03 10° SW visible
30 Oct 5.1 17:57:31 10° W 17:58:28 11° WSW 17:59:25 10° WSW visible
03 Nov 4.9 16:34:38 10° WNW 16:37:30 17° WSW 16:40:22 10° SSW visible
04 Nov 5.4 05:04:32 10° ESE 05:05:09 10° ESE 05:05:47 10° E visible
04 Nov 5.5 16:40:10 10° W 16:41:37 11° WSW 16:43:03 10° WSW visible
